GFSWCAN_925_rhum_003.txt.gz
RH
81 75 74 64 65 64 74 84 88 96 98 97 98 94 99 89 91 100 98 95 73 67 59 61 55 75 98 94 59 67 65 68 89 80 68 64 54 50 55 61 78 83 88 93 96 98 83 38 45 44 49 43 37 36
82 74 76 67 65 65 74 85 89 94 98 97 96 94 100 92 92 100 100 97 93 81 75 79 72 76 87 85 73 56 71 64 83 90 62 57 60 42 41 58 43 64 45 45 47 54 48 42 48 45 42 42 41 42
85 77 76 72 66 67 74 86 89 95 98 97 90 95 100 93 92 99 99 99 97 89 79 75 73 81 85 88 84 81 79 62 83 77 69 63 55 45 47 42 42 42 43 41 42 48 47 45 46 43 39 41 41 41
86 80 76 74 72 70 76 89 89 97 99 98 97 98 100 95 95 100 97 90 93 71 78 77 78 76 81 83 88 84 78 61 71 89 87 70 61 56 56 47 42 43 45 47 51 55 52 49 45 44 45 44 45 44
84 83 77 75 75 72 77 90 91 98 99 98 96 98 99 96 96 100 99 94 88 87 84 75 72 81 77 69 67 65 54 52 56 73 80 76 63 64 59 52 49 47 41 47 45 41 38 45 44 45 49 50 49 52
81 81 79 76 76 73 76 90 93 95 98 98 97 99 99 96 100 100 100 96 93 84 86 87 72 72 73 66 61 63 62 61 60 64 72 68 64 60 71 60 41 38 38 38 36 38 37 41 44 44 48 51 48 48
79 82 81 77 78 74 79 88 88 93 99 98 96 100 98 99 100 98 93 98 92 85 84 99 87 76 73 69 71 68 64 75 67 73 74 68 64 63 60 58 43 40 42 44 44 43 50 48 53 46 50 53 51 49
75 80 84 79 79 75 82 88 87 96 100 99 100 100 99 100 100 96 94 99 99 90 88 100 100 91 75 82 84 74 76 72 80 77 74 67 68 64 72 52 44 46 46 47 46 48 46 46 50 56 58 58 56 49
77 80 86 82 80 77 86 86 90 95 99 94 100 100 100 99 92 94 95 100 91 90 98 98 100 100 80 91 87 80 79 85 82 78 74 72 70 89 66 54 52 52 52 55 63 63 64 68 79 80 70 54 45 48
87 88 89 83 82 81 88 90 92 98 95 95 99 100 100 97 85 85 92 93 100 98 90 84 73 99 88 90 96 86 87 93 100 89 82 87 81 62 58 51 48 53 55 72 85 96 96 93 88 63 43 40 41 47
86 86 88 83 81 85 88 94 98 99 89 100 99 100 100 88 72 86 100 97 95 100 91 84 74 96 81 93 93 88 98 99 100 89 88 86 80 70 63 59 58 59 63 58 53 59 57 56 48 41 47 48 50 56
85 88 85 84 80 88 94 98 100 100 100 93 95 98 89 88 93 97 98 96 98 95 92 87 87 71 83 80 90 87 98 94 98 78 90 88 66 65 63 63 60 56 53 54 51 47 43 36 36 41 46 50 53 58
88 87 85 82 86 90 96 96 100 99 100 100 100 100 92 99 100 97 97 94 94 100 100 97 98 79 80 84 91 85 99 90 77 90 86 74 77 74 65 62 60 55 51 44 37 38 43 47 50 48 48 53 60 64
89 87 85 83 90 92 89 99 100 98 100 100 100 100 100 100 90 89 79 94 86 98 98 90 91 85 75 94 79 98 80 78 90 91 79 58 68 68 66 66 62 52 45 44 48 49 54 54 52 51 52 56 58 59
88 81 81 83 92 91 88 100 100 100 100 100 100 100 99 93 98 96 99 98 97 90 87 94 93 76 90 94 73 87 95 90 76 73 69 79 74 72 71 64 50 46 43 45 45 49 47 47 48 52 54 54 58 59
77 76 83 95 90 87 96 99 100 100 99 100 100 100 93 98 99 97 99 100 92 82 88 92 98 98 95 89 90 88 83 83 80 92 79 72 63 65 69 58 46 46 44 45 44 45 48 49 51 58 62 60 56 53
72 75 94 90 87 94 100 100 100 100 100 100 100 78 87 96 94 88 88 90 74 79 97 96 96 96 82 89 83 72 82 86 92 80 70 66 69 68 66 54 50 46 42 42 45 48 51 59 64 62 62 63 55 52
76 90 92 88 96 99 100 100 100 100 98 100 97 93 77 75 82 82 90 79 78 80 82 100 85 98 92 93 85 82 85 88 78 72 67 62 61 61 56 52 55 56 57 58 70 74 78 75 64 65 76 74 67 61
92 90 90 95 100 100 100 100 100 98 98 100 99 97 83 92 84 83 85 83 79 76 87 84 89 86 77 74 84 94 90 76 70 59 52 50 54 62 77 83 83 81 80 74 61 62 67 65 65 64 62 58 56 55
56 67 87 94 99 99 99 98 100 99 96 99 100 97 99 99 95 90 90 96 96 99 100 96 63 57 62 69 76 76 75 61 59 61 69 68 75 84 86 77 74 76 76 78 76 71 69 66 66 64 62 59 58 59
60 70 89 77 100 98 99 96 97 98 97 96 98 99 98 100 100 100 100 100 100 100 98 92 85 92 80 71 66 66 61 52 45 49 68 78 72 79 83 84 78 70 66 65 63 66 62 64 67 71 68 62 66 69
87 85 92 90 89 89 96 97 98 98 98 96 97 99 98 98 98 100 100 99 98 96 95 92 95 90 84 78 77 74 71 70 71 71 73 68 75 81 82 81 76 82 77 78 76 74 73 71 67 65 68 73 72 65
71 72 80 78 82 78 92 94 95 95 95 96 96 96 96 96 97 100 96 95 94 95 90 88 83 76 76 73 74 74 67 66 70 70 71 75 80 84 86 83 89 90 89 82 80 80 76 72 67 67 72 70 67 62
65 81 88 85 82 90 72 93 92 93 92 92 94 94 94 95 96 95 92 90 93 92 84 81 74 77 75 78 78 78 76 75 75 76 76 78 83 79 80 81 86 86 84 84 86 82 74 72 71 71 73 74 71 64
72 83 82 83 79 85 90 87 92 90 93 94 94 94 94 94 94 93 89 92 93 93 89 74 71 71 85 88 81 83 84 73 75 80 79 79 83 84 85 84 86 87 85 84 82 80 78 75 76 77 77 77 75 70
87 91 94 90 91 85 88 92 92 94 93 94 94 94 95 94 92 93 88 91 93 93 94 94 81 80 76 72 79 80 86 81 79 83 84 79 80 86 90 88 87 90 87 78 71 74 76 76 76 74 78 79 80 70
80 87 80 75 82 77 76 70 69 85 93 94 93 94 94 94 93 88 86 90 92 93 96 96 89 76 81 84 91 93 95 90 90 94 92 88 87 91 88 87 87 87 75 63 61 64 72 75 77 78 79 77 72 70
76 80 89 84 87 84 89 81 83 89 84 88 92 94 94 93 91 88 88 94 97 96 96 96 96 97 96 97 97 99 100 98 92 89 87 86 83 78 72 71 70 62 55 55 56 56 63 74 79 80 74 78 74 71
90 84 80 97 93 92 95 89 88 85 83 83 87 90 90 84 89 90 93 97 95 96 94 93 96 99 100 100 100 100 98 92 84 88 88 89 84 99 95 80 74 73 72 76 80 66 65 68 70 67 65 67 66 66
87 87 90 97 94 88 92 87 92 87 79 80 75 83 88 90 95 97 97 96 95 94 96 96 98 93 93 92 95 98 86 79 78 78 85 86 87 92 83 76 76 80 91 98 97 93 87 70 69 67 71 76 81 85
87 90 93 89 97 92 90 85 86 78 87 89 86 86 90 91 93 98 98 96 96 96 96 94 98 98 92 91 90 88 92 85 73 71 70 73 76 81 76 68 55 48 54 70 71 65 70 69 72 75 81 74 68 74
85 90 93 100 98 90 90 91 94 93 93 89 92 89 91 88 90 85 100 99 96 91 93 94 90 92 92 89 84 84 87 84 79 75 69 68 67 59 55 54 57 60 63 66 69 71 73 75 78 78 80 77 72 71
93 91 92 93 96 97 92 91 92 94 90 93 92 91 94 90 93 88 100 100 99 98 98 98 93 90 90 88 88 86 85 85 82 76 66 58 58 61 64 68 69 71 71 73 76 78 78 77 76 79 78 75 74 73

GFSWCAN_925_rhum_006.txt.gz
RH
83 82 82 80 73 69 63 65 74 83 90 93 94 93 94 99 100 100 98 99 89 92 71 60 54 80 97 98 89 75 84 84 96 90 88 85 70 75 87 76 87 90 89 88 97 99 92 44 47 49 56 42 38 48
77 76 82 80 74 76 65 65 73 84 89 94 94 96 98 97 100 100 100 100 99 98 88 76 68 73 86 94 95 80 80 70 82 86 82 69 66 51 60 91 68 85 72 79 78 72 52 46 52 47 47 48 48 58
84 76 80 82 79 74 70 68 72 83 89 95 94 95 98 94 100 99 99 100 97 97 87 86 79 84 91 96 93 92 85 70 80 83 74 77 62 61 61 58 68 57 58 56 52 56 56 54 48 44 45 53 53 54
86 81 79 82 80 72 74 71 72 82 88 91 95 97 98 90 100 100 98 94 92 94 93 90 77 78 87 93 96 97 95 75 87 93 93 90 77 65 71 54 57 51 53 55 64 59 56 50 49 52 54 53 54 55
87 84 81 75 80 74 75 74 72 82 90 90 96 99 95 91 100 100 100 93 85 100 97 89 75 78 79 90 96 96 92 88 83 99 97 94 79 73 71 61 59 54 51 58 60 52 49 54 55 54 56 58 61 63
87 86 82 80 82 78 76 76 76 85 89 92 96 98 92 97 100 99 99 96 94 94 99 98 78 76 72 82 88 88 78 72 70 78 85 91 79 77 85 79 47 46 43 43 45 47 50 52 54 54 59 60 62 65
89 87 82 74 81 85 78 75 78 89 87 94 98 98 90 100 100 98 89 95 92 89 98 99 96 78 74 73 85 77 72 85 86 84 86 81 78 78 76 80 51 50 53 51 49 51 62 56 62 58 59 59 56 56
85 90 87 85 85 86 80 76 82 87 88 94 100 90 94 100 100 95 89 100 99 90 90 100 100 95 76 89 95 82 86 86 90 89 85 81 78 76 85 65 52 56 57 55 57 52 57 58 61 66 65 64 65 65
89 88 89 86 87 85 80 79 86 90 92 96 94 85 100 99 100 99 95 100 90 89 98 100 100 100 81 91 89 87 87 92 88 89 88 87 85 95 76 66 61 59 60 73 81 72 68 77 82 81 72 63 60 61
94 93 89 86 90 83 80 86 91 91 96 96 97 99 100 100 94 91 94 98 100 100 98 97 86 97 89 90 97 91 94 96 100 92 90 97 95 74 66 60 64 64 76 76 82 95 90 92 84 70 54 52 58 63
92 89 85 90 85 82 83 89 95 98 87 97 99 100 98 94 79 89 100 100 99 100 96 92 87 97 84 93 94 90 98 100 96 92 92 98 92 84 74 66 71 77 76 71 71 78 72 72 59 54 59 63 67 66
91 87 89 85 83 79 87 87 89 99 100 99 100 99 99 96 100 99 98 100 99 95 96 93 95 83 90 81 91 91 99 98 95 88 89 91 86 70 72 73 76 73 70 71 66 64 58 48 51 56 62 67 69 74
90 90 86 85 79 86 85 90 86 99 99 99 99 100 99 100 100 97 94 93 97 100 100 98 98 89 87 86 93 94 97 98 84 89 88 91 89 78 74 76 73 68 62 53 50 48 50 54 54 56 63 65 69 74
88 86 81 77 89 87 84 82 96 98 100 100 100 99 100 99 94 84 89 90 94 99 99 94 93 94 86 96 91 89 93 88 93 96 90 92 83 81 77 74 67 56 45 50 54 57 59 59 62 62 62 62 68 75
84 76 75 80 82 83 82 92 100 100 98 100 100 100 99 97 99 98 98 97 100 91 88 93 94 86 98 92 88 90 94 94 90 89 90 94 88 86 83 67 56 52 50 53 54 57 60 59 60 62 58 58 60 63
83 74 75 84 84 84 88 96 100 100 99 100 100 100 97 97 99 97 100 97 93 85 96 96 98 98 94 93 95 94 93 93 85 96 97 89 86 85 74 60 53 49 50 51 52 55 57 61 66 65 58 55 54 55
82 71 74 87 87 89 99 99 100 100 100 100 100 91 96 99 95 94 86 90 76 80 95 97 90 88 91 96 94 87 90 94 100 96 94 81 86 77 59 62 58 51 51 54 57 59 67 68 64 68 70 54 51 50
88 90 89 83 90 95 98 100 100 100 99 100 100 100 81 84 92 92 91 82 82 89 94 100 91 98 94 93 95 93 98 98 96 93 90 86 84 66 60 62 64 60 67 77 80 75 70 72 80 80 71 60 57 59
90 84 76 88 98 100 100 100 100 99 99 100 99 100 94 96 93 90 88 82 83 86 88 95 91 96 96 93 97 99 95 95 81 76 73 70 64 75 84 82 80 79 77 75 75 79 74 69 72 68 62 59 61 56
45 74 66 95 98 96 99 99 99 99 98 99 100 99 99 99 98 92 89 94 98 100 99 93 85 73 76 84 93 94 90 68 66 84 93 87 81 80 83 79 80 80 80 79 76 74 71 69 64 60 58 58 61 60
60 65 73 80 98 94 98 97 98 99 98 98 99 99 99 100 100 100 100 100 100 100 99 92 93 93 94 84 76 74 64 54 61 68 83 92 89 85 84 82 77 75 74 73 74 71 72 76 72 64 63 65 63 60
79 85 83 82 95 93 98 98 98 98 99 98 98 99 99 99 99 99 100 99 98 98 99 94 95 92 89 93 87 78 74 74 76 76 77 77 85 86 88 84 79 89 88 86 83 82 79 69 66 70 73 70 60 52
78 72 75 77 86 84 89 90 96 96 97 96 97 97 98 98 98 100 97 98 97 97 97 97 97 96 84 78 74 76 81 82 81 78 80 86 89 90 92 94 91 89 91 89 80 77 73 72 75 74 77 68 59 57
71 83 89 92 93 94 79 93 93 96 97 96 96 96 96 97 98 97 96 97 97 97 96 97 96 95 92 88 90 91 89 83 78 78 77 78 86 86 88 89 89 86 87 86 82 74 70 71 71 64 62 62 60 61
75 73 85 85 88 88 92 92 93 95 96 96 96 96 96 97 97 96 96 96 95 96 97 97 86 80 91 92 88 89 77 74 76 85 82 80 84 87 89 88 90 90 84 82 84 80 73 68 67 70 71 64 63 66
68 84 90 89 94 91 97 98 95 95 96 96 96 97 97 97 95 95 94 95 95 95 95 96 90 84 83 80 84 85 85 78 77 81 82 82 84 86 92 92 93 90 81 74 71 74 74 69 71 77 83 78 74 68
77 82 84 76 90 80 90 79 78 89 96 96 96 96 96 95 95 93 94 93 94 94 96 97 83 84 90 89 92 97 89 83 88 92 92 89 87 85 86 89 91 86 71 61 54 54 60 62 67 65 65 64 60 59
82 83 91 90 95 95 95 94 93 97 92 90 93 95 95 95 94 94 94 95 96 96 96 96 99 96 96 98 98 99 98 94 88 88 88 90 87 82 79 80 78 66 56 53 54 53 54 58 62 65 67 67 65 64
95 88 90 96 96 97 100 98 99 94 85 90 96 94 93 89 95 94 95 96 95 96 94 94 96 96 97 96 97 96 91 87 80 89 92 95 96 100 89 79 71 67 68 70 67 55 55 55 56 56 58 60 63 64
83 96 97 98 89 94 100 98 99 92 85 85 80 91 89 93 96 96 96 95 95 95 96 96 96 95 95 93 94 89 80 76 73 78 86 91 96 92 77 72 74 75 72 83 90 94 88 73 73 63 64 64 60 70
96 97 96 95 100 100 99 96 96 88 94 96 96 95 94 95 96 96 96 96 95 95 95 95 96 96 94 92 91 90 94 76 71 72 70 74 76 73 71 72 77 77 80 76 62 63 67 64 67 71 69 62 62 67
90 97 100 100 100 98 98 99 100 99 98 97 100 97 96 96 95 94 96 96 95 95 94 95 94 99 91 87 85 85 73 78 80 77 67 64 66 65 57 48 46 50 57 58 62 65 67 69 70 67 68 69 68 68
97 99 98 99 100 100 99 97 98 98 97 99 100 100 100 98 96 97 95 96 96 98 99 97 92 91 89 86 86 87 78 74 74 73 62 58 54 51 51 55 59 61 64 67 70 71 71 68 68 71 72 70 69 68

GFSWCAN_925_rhum_009.txt.gz
RH
80 83 81 78 75 81 76 77 65 64 72 82 91 93 96 96 92 100 99 95 91 94 79 62 63 92 99 96 96 93 94 94 98 97 96 89 89 92 95 82 88 81 96 97 90 94 88 46 42 37 49 45 57 65
82 85 84 80 80 81 80 72 68 67 70 80 88 91 95 88 97 100 99 100 99 94 90 81 68 64 71 88 97 96 97 87 86 91 90 84 77 80 88 97 75 91 78 82 80 74 56 53 50 50 50 54 61 64
83 82 84 84 80 77 80 72 72 72 70 78 88 87 94 93 95 100 98 99 99 98 91 93 88 86 80 92 87 97 97 90 88 80 79 79 75 69 84 87 82 69 67 67 68 57 56 56 50 48 52 62 62 60
87 86 84 83 80 81 82 76 72 75 72 79 89 89 95 93 93 100 97 97 88 94 98 93 82 88 82 94 99 98 99 93 87 92 88 88 89 73 77 61 76 68 72 67 68 62 58 55 51 61 62 61 62 63
93 91 90 86 82 76 78 84 78 76 74 80 90 92 95 98 96 100 98 95 85 98 98 94 80 83 87 97 100 100 95 97 95 94 92 89 85 80 77 68 64 58 61 68 69 59 54 58 61 58 60 65 64 65
88 83 79 85 86 76 82 86 81 77 78 89 92 90 94 99 95 100 99 97 94 92 99 100 82 80 86 97 96 95 95 96 91 91 94 93 84 84 87 77 54 52 50 48 48 53 56 60 61 58 65 68 67 68
91 93 89 85 86 86 85 86 80 77 83 88 90 93 95 99 99 100 90 86 91 97 99 99 97 82 77 90 98 98 93 90 91 89 90 88 84 84 87 90 58 54 55 59 56 56 66 59 68 64 66 67 64 66
94 94 92 91 89 84 88 83 77 82 88 92 89 92 98 93 98 100 87 96 99 93 96 100 100 96 76 95 97 94 94 92 89 92 87 89 83 84 90 73 58 62 64 64 61 58 61 64 64 66 63 63 68 70
92 92 90 90 84 89 85 80 82 88 92 90 93 97 97 99 100 99 95 100 91 87 99 99 100 100 85 93 91 90 92 99 92 95 92 89 90 93 74 71 67 63 62 78 80 72 68 71 74 72 68 64 67 72
91 91 89 87 89 86 82 79 86 87 94 84 99 99 99 99 96 92 99 99 99 100 97 97 92 98 90 92 97 92 96 98 100 94 90 96 96 78 74 72 62 72 78 76 83 93 86 83 77 67 59 60 63 70
91 90 90 88 84 82 78 84 84 91 88 98 98 99 99 98 87 95 100 100 100 100 98 93 91 97 85 92 94 93 100 100 94 94 92 98 98 84 77 72 78 81 74 71 72 73 69 66 62 61 68 69 72 77
92 90 87 84 81 78 81 82 81 85 98 98 100 100 100 99 100 100 99 100 100 97 99 97 96 86 90 83 94 93 95 97 94 91 95 96 86 74 78 81 89 84 80 81 75 76 66 56 57 64 70 77 83 84
90 86 83 79 78 85 76 79 87 95 98 100 100 100 100 100 100 99 98 99 99 100 100 98 97 86 85 85 94 92 95 98 87 87 90 88 88 77 82 87 88 82 77 74 66 59 60 64 62 66 79 81 83 83
88 84 83 79 77 82 81 80 89 99 99 100 100 99 99 99 96 92 94 92 86 100 99 92 95 91 88 91 91 89 96 88 94 96 90 88 87 85 86 84 73 67 58 56 57 57 61 66 72 72 76 78 80 82
89 85 78 53 75 84 84 86 96 99 97 99 100 99 98 98 99 99 98 97 100 91 82 91 94 84 98 91 90 90 96 98 92 87 87 95 92 90 80 61 60 60 55 55 54 58 63 66 70 75 73 72 71 67
88 75 52 73 87 84 86 94 100 100 100 99 99 99 98 98 99 98 100 100 99 82 94 92 97 92 93 93 96 94 93 93 80 91 96 96 91 83 68 61 58 52 51 54 56 59 62 64 67 69 65 64 62 59
88 66 69 91 84 87 94 99 99 99 99 100 99 100 100 99 97 96 92 90 82 79 90 94 83 78 94 100 98 92 88 84 98 98 98 91 89 76 65 64 59 53 53 57 61 66 70 68 62 60 63 60 56 55
88 70 70 82 87 87 92 99 99 99 99 99 99 99 98 86 94 92 90 88 92 96 93 85 91 98 95 91 95 91 100 99 98 96 96 86 77 69 62 66 62 61 66 71 77 78 77 75 71 69 72 64 60 59
90 82 74 71 95 93 96 94 99 98 99 99 98 99 100 98 93 93 92 84 85 89 90 94 91 95 94 94 95 100 98 97 93 93 89 77 70 73 78 78 76 76 77 77 76 82 82 75 73 68 67 63 66 68
44 70 64 77 94 86 92 96 96 99 98 98 99 99 99 99 99 95 94 94 99 98 86 87 89 84 84 88 96 96 90 79 85 90 93 92 81 77 77 72 74 80 81 80 78 75 74 72 70 65 61 64 68 72
54 60 70 74 91 89 97 100 95 99 99 99 99 99 99 100 100 100 100 100 100 100 99 95 95 95 96 92 85 79 67 70 81 82 84 95 88 81 82 82 79 77 77 77 77 75 74 77 74 70 66 64 63 61
67 86 76 77 90 88 96 98 98 97 99 98 97 98 99 99 99 99 100 98 97 98 100 98 100 97 94 92 87 75 74 73 75 76 80 79 83 84 83 82 80 89 88 86 84 84 81 78 71 68 67 67 58 54
84 64 64 70 75 79 77 89 95 95 97 95 96 97 97 98 98 99 97 97 97 98 96 95 97 86 87 86 87 85 76 78 84 85 84 88 90 90 89 87 85 86 91 89 82 80 82 81 79 67 64 57 59 60
71 80 82 89 90 85 81 91 93 97 97 96 96 96 96 97 97 97 96 96 96 97 96 97 95 95 92 90 95 94 85 80 84 84 84 84 90 91 89 90 90 87 84 85 85 86 84 82 78 59 52 49 51 56
62 62 78 82 89 86 96 94 97 95 96 96 96 96 96 97 96 96 95 95 94 94 95 97 96 96 94 95 94 89 76 76 81 91 88 85 88 90 93 93 91 86 80 80 82 85 83 66 59 56 55 55 60 64
59 72 68 95 94 90 97 100 98 96 98 97 96 96 97 96 95 95 93 95 95 95 94 95 96 95 94 94 93 93 87 77 77 84 87 82 81 83 90 90 90 90 80 73 72 77 75 67 63 59 64 70 73 61
71 77 88 79 91 86 91 84 81 95 98 97 96 95 96 95 95 93 92 94 94 94 96 96 96 94 93 93 96 97 92 85 93 95 91 85 84 85 85 87 88 88 74 65 56 54 63 70 76 72 66 60 56 54
80 80 80 86 96 98 96 97 100 100 98 86 90 96 95 94 93 94 94 95 96 95 96 96 96 96 96 96 96 97 98 99 97 95 93 94 90 83 78 78 74 70 61 52 49 50 49 49 50 53 55 57 60 59
99 92 90 98 99 100 100 98 100 99 90 95 97 94 92 89 94 94 95 96 96 96 95 94 96 96 96 96 97 97 97 96 91 93 92 92 93 99 88 79 67 60 61 59 54 46 45 47 51 52 54 56 60 62
84 94 99 100 89 91 96 98 100 91 91 90 83 92 90 92 96 96 96 95 95 95 96 96 96 95 94 93 95 96 96 92 80 77 86 90 96 96 78 69 66 64 67 78 86 88 91 78 75 60 57 52 52 54
97 97 98 98 100 100 99 98 98 92 97 99 95 95 95 97 95 95 96 96 96 95 95 95 95 96 95 95 92 86 90 81 71 67 68 81 82 72 68 68 73 80 82 74 64 63 62 58 58 56 51 52 59 58
97 100 97 100 100 98 99 100 100 100 100 99 98 95 96 95 95 94 96 96 95 95 95 95 95 96 95 88 80 75 71 87 86 76 65 68 72 74 74 75 76 65 53 55 57 59 59 59 57 54 56 58 60 61
97 99 100 100 100 100 99 96 100 100 99 100 100 100 96 94 95 94 96 96 96 96 95 95 95 95 87 78 77 82 76 72 67 62 60 60 61 61 62 64 58 53 55 58 61 62 62 56 56 60 60 60 62 66

GFSWCAN_925_rhum_012.txt.gz
RH
80 80 82 84 84 82 79 80 80 68 72 69 73 87 93 92 95 99 98 94 86 91 78 64 69 92 96 89 94 90 99 98 98 97 94 94 85 93 91 81 88 88 95 87 87 93 86 48 39 37 45 54 62 66
84 84 88 86 85 82 77 82 82 72 71 74 73 83 91 91 98 98 100 98 92 94 91 82 67 63 68 72 88 98 95 92 89 91 93 84 87 94 88 94 75 87 76 87 87 81 61 54 48 53 52 62 65 72
88 87 86 85 86 83 79 80 80 80 74 75 72 80 89 94 97 100 100 100 99 97 89 93 86 75 75 72 76 95 96 90 93 84 86 88 80 78 93 87 88 75 68 78 66 61 56 53 52 54 54 64 68 68
93 86 88 82 78 85 82 74 82 82 78 75 76 86 91 90 92 98 100 98 93 92 98 90 85 85 83 85 90 95 99 96 98 97 90 85 86 74 77 68 84 80 75 71 70 60 57 56 53 64 70 68 70 69
85 83 83 89 88 83 84 83 84 84 80 75 82 88 91 92 96 98 100 98 87 98 99 95 81 85 92 98 99 99 98 98 99 100 99 89 89 81 84 76 73 67 78 75 72 59 57 58 64 65 66 70 69 68
89 90 90 92 90 87 86 84 85 84 77 80 86 91 94 92 91 99 100 97 92 91 99 100 86 86 98 100 97 97 96 97 98 99 94 94 84 84 90 87 58 55 54 57 54 57 64 68 68 62 70 70 68 70
92 92 90 89 91 86 84 87 86 79 79 86 88 92 88 91 98 98 97 100 96 92 99 99 98 84 90 93 97 98 98 98 98 96 95 88 88 88 89 91 61 58 52 61 64 61 69 61 70 68 69 70 70 72
93 89 89 88 84 86 88 84 78 77 86 85 87 88 90 94 99 99 84 99 100 94 98 100 100 96 80 97 98 96 97 97 93 93 89 90 83 85 92 76 63 66 68 65 68 62 64 71 70 72 69 68 74 76
92 89 89 88 88 84 82 77 77 82 83 84 86 99 99 100 99 96 87 100 94 87 99 100 100 100 87 95 93 94 96 98 93 95 95 92 90 93 74 69 68 69 62 84 84 76 72 74 77 75 72 70 73 76
91 91 89 88 85 82 78 77 77 73 74 79 100 99 100 93 100 97 100 99 99 100 97 98 94 98 92 94 98 92 97 99 100 96 92 96 97 80 75 73 66 71 82 75 82 91 86 84 79 74 65 64 67 74
93 92 90 86 84 81 79 78 74 84 78 97 100 100 97 92 100 98 100 100 99 100 99 94 92 97 88 92 94 93 99 100 94 94 94 96 98 87 78 79 75 80 74 69 71 73 68 66 65 67 72 73 76 77
93 91 89 86 84 82 80 77 84 91 96 98 99 99 100 99 100 99 100 100 100 97 99 98 97 91 93 84 91 92 96 97 88 91 96 98 87 76 80 82 85 83 79 80 73 72 66 60 60 67 72 78 82 87
92 91 91 89 86 75 79 81 82 89 94 99 98 99 100 100 99 99 99 100 99 100 100 99 97 86 85 86 95 92 95 94 88 94 95 89 86 80 88 93 93 88 84 76 67 63 65 69 66 68 82 85 87 91
91 91 91 90 57 75 86 84 85 93 99 100 99 98 99 99 98 92 93 94 90 100 99 91 95 91 85 90 90 92 96 88 97 100 89 88 82 83 90 90 84 86 72 68 68 66 67 69 76 80 82 84 87 91
90 89 80 51 70 90 86 88 93 100 100 99 100 98 99 100 99 98 100 98 100 96 87 90 93 82 94 92 88 91 97 97 92 85 84 92 90 93 88 77 72 70 67 65 61 61 67 71 76 86 83 80 81 80
90 83 42 64 89 88 88 91 96 100 100 99 99 99 99 100 99 99 100 99 100 86 91 92 90 87 91 91 97 92 93 93 80 91 94 98 93 81 76 72 68 61 57 56 59 63 68 71 77 81 74 70 67 64
87 71 65 77 88 88 85 90 98 98 99 99 99 100 100 99 99 97 90 90 88 86 89 93 83 78 93 100 93 91 86 82 92 98 98 93 88 78 71 69 63 58 58 60 62 66 70 72 70 68 70 66 59 57
89 74 78 88 86 85 83 97 94 98 100 99 100 99 97 99 98 90 88 88 95 97 93 83 90 99 98 88 91 87 99 99 99 98 98 88 80 76 67 68 65 62 63 66 72 70 70 69 68 70 75 67 63 60
93 92 84 80 91 87 87 86 98 100 98 99 99 96 97 99 98 94 93 89 85 90 92 94 89 93 90 92 88 99 100 97 98 96 89 79 74 74 80 77 76 76 76 75 68 69 70 64 67 67 66 63 66 65
59 58 74 58 86 80 89 96 92 96 99 96 99 99 97 98 99 99 95 91 94 96 86 90 88 85 87 87 97 97 96 92 87 92 95 91 86 82 80 74 74 80 82 82 81 76 73 71 70 67 65 67 66 67
55 68 68 65 87 88 94 98 98 97 94 100 97 100 98 99 99 100 100 100 100 100 99 95 91 92 96 94 90 87 84 82 81 80 78 92 89 81 84 80 73 70 72 75 76 73 71 70 70 68 72 72 66 60
65 72 69 74 83 84 96 97 98 95 100 98 97 99 99 98 99 99 100 99 98 97 97 98 99 97 95 90 80 78 84 83 78 77 76 76 84 84 82 78 74 82 80 83 81 83 87 79 72 68 68 69 58 58
81 67 62 64 70 73 71 86 96 98 100 96 96 97 97 97 98 99 97 97 96 95 96 96 99 94 95 90 84 84 81 82 85 80 72 75 80 81 82 82 83 85 90 90 84 85 83 76 74 67 67 58 56 60
73 79 78 79 86 74 78 88 86 98 97 96 97 95 95 97 97 97 95 95 95 94 92 96 96 95 96 93 94 91 88 83 86 86 82 80 88 87 86 85 85 83 84 84 86 88 83 76 74 65 61 61 56 56
62 57 71 62 88 80 98 94 97 96 100 96 98 95 96 97 96 95 94 95 93 94 93 92 94 96 97 97 92 88 83 80 82 91 82 82 90 90 90 87 88 87 85 86 87 88 88 75 64 59 52 51 56 59
69 65 66 80 90 81 94 98 99 97 98 98 96 96 97 96 95 94 92 95 95 95 94 94 95 94 95 95 91 92 93 82 80 85 96 93 86 84 89 88 89 86 82 82 82 81 74 64 57 54 58 69 70 54
76 74 85 78 88 88 90 85 82 95 100 100 97 97 97 96 95 92 91 93 94 94 96 96 96 95 95 94 96 97 98 97 93 96 97 95 88 86 81 81 84 85 79 76 67 59 60 59 60 65 72 70 53 49
80 76 84 88 96 98 93 98 100 100 100 90 86 97 96 94 93 93 94 95 97 96 96 96 96 96 96 96 96 97 97 96 96 95 94 92 87 81 76 78 84 84 72 60 51 49 47 52 60 57 49 50 54 56
99 93 91 99 100 100 99 95 97 98 91 100 100 96 94 87 97 96 91 96 95 96 95 95 96 96 96 96 96 96 97 93 83 88 90 93 93 96 96 91 82 67 62 58 50 47 45 38 40 45 49 52 56 57
85 92 100 100 96 93 94 97 100 88 94 93 87 96 95 97 92 95 96 95 95 95 96 96 96 96 95 94 95 96 96 96 96 87 88 92 94 96 84 71 64 60 54 51 61 75 81 74 73 54 55 55 53 50
97 97 100 99 97 99 99 96 98 92 97 100 98 98 96 97 93 95 96 96 96 96 95 95 96 96 95 95 95 94 95 95 96 95 94 92 88 78 68 61 56 53 54 65 76 74 73 58 54 52 51 57 66 57
98 100 97 100 100 98 97 100 100 100 100 100 100 99 99 98 96 96 96 96 95 95 95 96 95 96 96 96 95 95 95 92 94 87 78 75 68 62 57 56 60 63 66 64 55 55 54 54 52 50 52 55 55 56
98 98 100 100 100 100 99 97 100 99 100 100 100 100 98 95 96 94 96 96 96 96 96 96 96 96 96 96 92 90 82 83 84 77 61 57 57 60 68 71 58 49 50 54 57 58 57 53 50 52 54 56 59 61

GFSWCAN_925_rhum_018.txt.gz
RH
84 87 88 85 80 80 84 82 83 81 80 80 80 78 74 88 91 98 95 100 100 96 82 68 68 86 88 86 92 88 93 97 99 99 97 95 97 92 92 79 84 84 85 97 84 94 75 55 54 61 54 59 64 66
89 91 88 84 85 82 83 84 85 84 82 82 79 76 74 88 91 95 95 86 100 100 89 82 70 64 66 68 88 91 86 86 90 97 90 87 95 94 90 90 85 94 82 83 80 77 59 59 58 56 61 65 65 69
91 91 84 87 84 83 84 84 82 81 82 82 80 75 79 89 91 95 97 96 99 98 90 88 83 76 67 64 64 88 94 85 94 96 96 92 91 91 97 95 82 80 79 83 75 63 68 62 55 62 69 72 78 80
92 89 85 86 84 82 79 80 83 84 84 83 78 77 85 88 92 93 93 87 99 97 97 86 84 83 82 79 76 76 90 96 98 99 99 95 88 80 86 82 84 78 75 77 78 71 68 61 58 71 80 78 76 76
94 89 89 86 85 82 81 82 80 80 78 76 76 78 84 87 88 90 79 88 95 100 99 96 84 92 92 88 91 93 94 96 97 99 98 97 89 84 90 85 90 86 79 80 78 65 62 59 72 73 75 77 72 72
94 88 89 86 85 83 79 76 74 73 72 74 76 74 76 80 86 88 97 100 100 100 99 100 89 93 99 98 96 97 97 97 97 98 98 89 84 82 93 90 65 73 70 65 62 61 75 77 74 70 78 76 73 72
93 88 88 88 86 85 82 79 77 75 73 74 79 78 80 82 85 93 91 97 91 94 100 99 98 89 94 92 95 98 98 98 98 94 99 97 93 91 94 96 65 66 63 61 64 66 67 66 72 76 75 76 74 75
93 84 90 89 88 86 84 81 78 75 75 82 83 84 90 96 95 96 69 77 78 100 99 100 99 94 89 98 99 97 99 99 99 96 96 98 92 93 98 82 74 65 69 71 69 66 63 79 82 84 78 70 73 74
93 84 91 90 89 88 86 83 77 74 80 84 88 94 97 94 98 94 97 99 83 99 100 99 100 88 90 95 95 98 98 99 96 99 97 97 93 98 81 77 74 75 70 79 86 83 80 81 85 84 78 73 76 84
94 83 90 92 91 89 88 83 77 78 80 81 86 93 99 98 82 94 100 100 100 100 99 99 92 93 96 96 98 97 97 99 100 96 93 99 98 78 74 72 67 74 82 79 85 94 91 89 88 81 71 70 73 81
91 86 89 91 93 92 86 78 80 82 77 90 98 100 92 82 99 99 100 98 100 100 98 95 92 96 92 96 95 93 99 99 98 90 95 84 98 89 83 82 80 79 77 73 66 76 68 70 77 78 80 79 78 79
94 92 92 91 90 91 83 82 85 85 86 93 99 98 99 99 100 99 99 100 100 96 96 98 95 89 95 89 91 93 96 96 99 92 97 96 92 80 83 86 82 82 78 71 71 75 74 71 69 73 76 77 81 74
94 94 95 94 93 84 90 89 86 88 91 89 98 100 100 99 98 98 98 99 94 100 100 99 98 90 89 89 94 92 91 88 88 98 97 93 86 79 85 90 90 84 78 77 78 74 71 73 71 71 82 78 71 67
93 95 96 95 89 88 94 89 90 87 90 98 100 96 98 98 98 99 99 99 95 100 100 97 96 94 88 93 93 96 93 89 97 99 92 90 74 77 90 91 89 86 79 78 76 73 73 75 82 81 80 74 71 75
91 91 93 78 74 95 93 89 83 90 98 96 98 96 98 100 99 100 100 100 96 99 98 92 94 80 94 91 89 93 98 98 96 89 88 90 84 96 94 91 90 87 82 81 76 77 82 82 87 90 84 78 76 75
94 86 56 66 84 93 88 82 83 95 99 99 99 97 97 97 98 98 97 99 97 99 96 96 91 91 86 93 98 99 96 94 81 92 92 97 91 91 91 89 86 81 77 77 78 78 81 82 86 91 86 79 74 69
87 84 69 77 94 90 79 82 88 98 97 91 96 100 99 99 99 93 100 97 86 98 100 95 90 80 90 98 98 90 88 83 91 92 98 98 96 89 89 85 81 78 78 78 77 80 83 83 80 77 79 75 69 66
84 86 90 94 92 74 77 77 95 94 90 95 100 98 95 93 87 86 98 97 99 100 96 93 87 100 93 90 90 88 94 98 99 99 98 92 88 86 82 84 82 80 81 80 80 80 80 79 78 80 82 76 70 67
93 96 94 77 76 84 90 83 93 93 93 94 82 92 89 93 90 87 88 95 98 98 100 99 94 94 91 94 92 95 99 100 99 96 91 85 84 86 87 87 85 85 84 83 77 74 74 70 76 73 68 64 66 65
93 84 76 57 76 81 90 98 94 89 91 96 94 97 93 100 92 93 92 98 100 100 100 99 93 85 88 90 97 97 97 93 94 93 93 92 92 89 89 84 81 82 81 78 76 72 72 70 68 66 64 63 61 64
80 79 63 60 87 85 88 91 96 95 90 89 84 99 98 98 92 95 98 100 99 100 99 98 98 93 90 94 90 93 93 94 92 88 89 99 94 91 92 88 79 73 72 71 69 69 67 68 68 66 67 63 59 56
75 73 64 66 84 87 96 96 99 97 96 88 98 100 99 99 100 98 98 99 97 96 94 94 94 95 93 89 92 87 88 87 83 84 84 86 94 94 91 84 76 82 78 74 73 74 79 82 73 64 60 62 56 59
79 67 60 61 70 71 68 87 95 99 99 100 100 97 98 100 97 97 98 97 95 94 93 93 94 95 95 95 90 90 86 85 92 93 88 91 89 85 86 82 80 85 89 85 79 80 82 76 73 66 67 63 63 66
69 72 68 69 78 64 76 89 88 99 99 97 100 97 90 99 96 100 98 98 93 93 92 94 93 91 94 98 97 97 90 86 91 90 86 86 92 93 84 82 82 78 80 82 79 81 82 77 74 71 69 70 67 58
72 65 72 60 88 76 78 89 100 95 100 100 99 100 95 99 99 100 99 97 96 93 94 92 92 92 94 94 95 97 97 85 86 91 86 84 86 85 85 83 83 82 79 83 83 80 83 80 74 72 68 63 57 54
73 70 80 72 80 71 84 82 98 95 99 100 100 96 100 98 99 96 96 96 97 95 94 94 94 92 89 92 93 94 96 95 84 90 89 82 79 83 89 89 90 88 81 84 84 85 81 77 74 68 65 67 63 50
79 75 78 70 83 86 93 89 84 95 100 100 99 98 100 100 99 89 95 96 98 90 88 96 96 92 91 90 94 96 96 98 97 96 96 94 92 91 92 89 88 87 82 85 85 78 75 74 70 67 67 66 50 40
83 82 87 96 97 96 84 97 100 99 94 91 94 99 100 93 88 94 94 82 80 86 95 96 95 98 98 96 96 96 96 97 96 96 96 97 97 97 97 96 90 93 88 82 71 66 67 69 59 57 56 51 51 47
97 93 90 100 100 100 98 85 86 92 87 94 93 95 94 92 96 97 76 78 89 97 100 95 90 95 95 96 96 96 96 97 94 95 93 93 94 96 97 97 96 96 83 85 84 94 68 47 44 44 40 43 47 48
98 94 98 100 95 90 89 95 100 98 95 90 88 96 95 96 83 80 85 89 97 98 95 99 100 98 96 96 96 96 96 96 97 93 91 91 92 99 97 97 98 96 96 95 89 81 82 66 62 43 46 52 51 46
97 97 100 99 96 98 99 96 98 92 96 100 100 100 97 97 86 90 93 93 98 96 99 97 94 96 96 96 96 96 95 96 97 96 95 95 97 96 97 99 96 95 96 88 84 75 64 45 44 49 50 47 52 44
98 100 100 100 100 98 98 100 100 100 100 100 100 100 100 100 99 97 91 92 93 95 93 95 95 95 95 96 96 96 96 95 96 96 95 96 96 97 96 96 95 95 75 65 56 45 38 42 46 45 48 49 45 44
99 100 100 100 100 100 99 99 100 100 100 100 100 100 100 99 97 94 92 95 95 96 96 96 96 96 96 95 95 96 96 96 97 98 98 98 97 96 96 91 67 57 52 44 42 42 43 44 46 44 42 42 43 46